Date,TemperatureHighF,TemperatureAvgF,TemperatureLowF,DewpointHighF,DewpointAvgF,DewpointLowF,HumidityHigh,HumidityAvg,HumidityLow,PressureMaxIn,PressureMinIn,WindSpeedMaxMPH,WindSpeedAvgMPH,GustSpeedMaxMPH,PrecipitationSumIn
2013-1-1,58,33,32,46,-1,-100,80,64,52,0.00,40.00,7,-156,15,0.00
2013-1-2,58,35,28,49,12,-100,80,67,46,0.00,40.00,39,-149,39,0.00
2013-1-3,80,26,25,65,-17,-100,80,62,42,0.00,40.00,8,-67,27,0.00
2013-1-4,61,34,26,52,0,-100,80,62,44,0.00,40.00,7,-128,7,0.00
2013-1-5,63,35,28,43,2,-100,80,63,33,0.00,40.00,28,-716,17,0.00
2013-1-6,53,39,43,46,7,-100,81,71,56,0.00,40.00,17,-175,35,0.00
2013-1-7,55,36,33,46,-8,-100,88,61,59,0.00,40.00,7,-111,17,0.00
2013-1-8,59,35,30,48,5,-100,88,70,57,0.00,40.00,7,-134,9,0.00
2013-1-9,63,41,32,48,9,-100,80,64,51,0.00,40.00,10,-268,18,0.00
2013-1-10,52,29,33,46,-24,-100,81,55,47,0.00,40.00,16,-207,37,0.00
2013-1-11,53,30,27,35,-27,-100,81,50,43,0.00,40.00,32,-151,32,0.00
2013-1-12,52,31,27,39,-2,-100,80,63,43,0.00,40.00,16,-144,25,0.00
2013-1-13,53,31,23,31,-4,-100,80,59,43,0.00,40.00,28,-166,28,0.00
2013-1-14,59,26,22,29,-17,-100,80,54,5,0.00,40.00,3,-150,9,0.00
2013-1-15,56,33,23,31,2,-100,80,59,31,0.00,40.00,5,-211,36,0.00
2013-1-16,61,33,25,33,-4,-100,80,57,32,0.00,40.00,7,-85,15,0.00
2013-1-17,63,35,25,36,-5,-100,80,57,35,0.00,40.00,77,-140,77,0.00
2013-1-18,75,33,28,43,-2,-100,80,63,31,0.00,40.00,41,-104,37,0.00
2013-1-19,74,35,28,49,2,-100,80,61,33,0.00,40.00,37,-163,37,0.00
2013-1-20,66,32,28,44,-18,-100,80,59,38,0.00,40.00,7,-156,21,0.00
2013-1-21,68,37,28,46,4,-100,80,61,35,0.00,40.00,6,-178,39,0.00
2013-1-22,74,32,30,47,-12,-100,80,60,29,0.00,40.00,30,-141,9,0.00
2013-1-23,61,41,40,50,-3,-100,80,56,44,0.00,40.00,7,-249,16,0.00
2013-1-24,61,46,48,55,7,-100,81,65,64,0.00,40.00,8,-127,10,0.00
2013-1-25,61,44,51,55,12,-100,81,75,80,0.00,40.00,3,-351,16,0.00
2013-1-26,62,54,52,54,31,-100,80,72,80,0.00,40.00,69,-186,15,0.00
2013-1-27,119,37,34,47,-26,-100,95,51,60,0.00,40.00,81,-316,81,0.00
2013-1-28,59,33,32,53,-19,-100,80,54,45,0.00,40.00,29,-183,10,0.00
2013-1-29,61,35,32,42,-3,-100,80,65,44,0.00,40.00,7,-143,17,0.00
2013-1-30,64,35,32,42,-16,-100,80,58,21,0.00,40.00,28,-192,28,0.00
2013-1-31,70,31,32,50,-36,-100,94,51,42,0.00,40.00,29,-189,8,0.00
2013-2-1,70,34,33,49,-21,-100,88,58,47,0.00,40.00,3,-254,28,0.00
2013-2-2,66,40,44,50,-9,-100,80,60,56,0.00,40.00,67,-358,43,0.00
2013-2-3,67,37,41,53,-22,-100,80,53,53,0.00,40.00,3,-239,9,0.00
2013-2-4,75,36,40,52,-56,-100,89,33,58,0.00,40.00,28,-247,16,0.00
2013-2-5,70,10,36,52,-87,-100,80,26,51,0.00,40.00,10,-62,31,0.00
2013-2-6,63,39,40,47,-20,-100,88,57,50,0.00,40.00,31,-474,31,0.00
2013-2-7,59,37,33,51,2,-100,82,68,59,0.00,40.00,29,-228,43,0.00
2013-2-8,59,42,40,46,-1,-100,83,60,57,0.00,40.00,8,-462,89,0.00
2013-2-9,59,31,32,47,-15,-100,80,57,32,0.00,40.00,28,-195,28,0.00
2013-2-10,61,27,29,37,-35,-100,80,44,32,0.00,40.00,67,-71,103,0.00
2013-2-11,64,42,30,38,-6,-100,80,52,26,0.00,40.00,8,-784,8,0.00
2013-2-12,130,43,32,36,-17,-100,81,45,25,0.00,40.00,18,-309,35,0.00
2013-2-13,75,39,31,42,-5,-100,80,53,31,0.00,40.00,18,-167,10,0.00
2013-2-14,68,38,32,42,-15,-100,80,52,35,0.00,40.00,14,-174,14,0.00
2013-2-15,77,41,33,46,4,-100,81,59,25,0.00,40.00,8,-280,41,0.00
2013-2-16,74,41,36,58,-12,-100,82,58,30,0.00,40.00,8,-349,29,0.00
2013-2-17,87,36,36,58,-31,-100,88,45,34,0.00,40.00,66,-300,76,0.00
2013-2-18,74,34,36,50,-33,-100,88,49,39,0.00,40.00,81,-388,81,0.00
2013-2-19,60,38,41,44,-13,-100,80,57,39,0.00,40.00,16,-113,27,0.00
2013-2-20,55,31,38,49,-33,-100,82,50,56,0.00,40.00,14,-195,10,0.00
2013-2-21,61,35,32,44,-11,-100,80,52,41,0.00,40.00,32,-101,84,0.00
2013-2-22,65,41,33,42,-8,-100,88,53,38,0.00,40.00,2,-164,16,0.00
2013-2-23,91,35,35,74,-23,-100,80,48,44,0.00,40.00,69,-210,38,0.00
2013-2-24,63,27,34,36,-38,-100,80,49,24,0.00,40.00,28,-251,28,0.00
2013-2-25,69,33,32,47,-39,-100,88,43,34,0.00,40.00,74,-226,101,0.00
2013-2-26,67,30,33,48,-52,-100,80,34,80,0.00,40.00,46,-167,46,0.00
2013-2-27,44,2,44,-100,-100,-100,0,0,100,0.00,40.00,0,0,7,0.00
2013-2-28,47,1,47,-100,-100,-100,81,18,25,0.00,40.00,74,-10,28,0.00
2013-3-1,50,4,10,44,-93,-100,80,7,37,0.00,40.00,84,-29,65,0.00
2013-3-2,78,6,68,-100,-100,-100,80,1,80,0.00,40.00,92,-10,92,0.00
2013-3-3,59,1,59,-100,-100,-100,46,1,46,0.00,40.00,37,5,65,0.00
2013-3-4,74,15,46,53,-68,-100,80,25,35,0.00,40.00,37,-167,69,0.00
2013-3-5,91,37,41,53,-22,-100,80,54,59,0.00,40.00,29,-212,29,0.00
2013-3-6,72,40,43,50,-16,-100,80,54,49,0.00,40.00,44,-300,18,0.00
2013-3-7,68,43,47,51,0,-100,80,55,38,0.00,40.00,7,-303,44,0.00
2013-3-8,52,39,43,46,6,-100,80,71,78,0.00,40.00,14,-125,31,0.00
2013-3-9,59,30,40,46,-34,-100,88,53,61,0.00,40.00,6,-220,17,0.00
2013-3-10,69,35,37,48,-18,-100,80,56,40,0.00,40.00,28,-226,40,0.00
2013-3-11,72,33,37,56,-25,-100,81,54,37,0.00,40.00,28,-185,47,0.00
2013-3-12,91,42,41,55,-13,-100,80,56,38,0.00,40.00,83,-271,83,0.00
2013-3-13,91,40,43,69,-27,-100,80,42,40,0.00,40.00,106,-230,113,0.00
2013-3-14,-200,0,200,-100,-100,-100,0,0,100,0.00,40.00,106,8,0,0.00
2013-3-16,59,54,49,53,30,-100,80,70,80,0.00,40.00,0,-999,0,0.00
2013-3-17,52,4,52,46,-87,-100,80,17,80,0.00,40.00,0,-87,0,0.00
2013-3-18,72,57,30,43,-34,-100,76,36,61,0.00,40.00,0,-999,0,0.00
2013-3-19,83,70,63,56,-16,-100,74,31,30,0.00,40.00,0,-999,0,0.00
2013-3-20,70,58,51,50,7,-100,80,51,49,0.00,40.00,0,-999,0,0.00
2013-3-21,65,34,60,-100,-100,-100,0,0,100,0.00,40.00,0,-545,0,0.00
2013-3-22,54,16,42,32,-69,-100,57,17,33,0.00,40.00,1,-176,2,0.00
2013-3-23,73,32,31,47,-52,-100,80,37,33,0.00,40.00,28,-438,37,0.00
2013-3-24,78,49,38,50,-5,-100,88,52,41,0.00,40.00,0,-876,28,0.00
2013-3-25,85,48,41,52,-31,-100,80,38,27,0.00,40.00,74,-643,74,0.00
2013-3-26,75,34,45,54,-51,-100,96,37,44,0.00,40.00,74,-381,0,0.00
2013-3-27,69,29,47,51,-41,-100,80,41,44,0.00,40.00,3,-258,65,0.00
2013-3-28,89,38,46,57,-34,-100,81,43,45,0.00,40.00,37,-332,0,0.00
2013-3-29,91,37,43,58,-21,-100,80,52,39,0.00,40.00,53,-136,0,0.00
2013-3-30,86,40,50,54,-28,-100,80,51,54,0.00,40.00,0,-275,32,0.00
2013-3-31,72,50,51,60,1,-100,88,60,48,0.00,40.00,0,-298,45,0.00
2013-4-1,91,39,48,52,-38,-100,80,46,36,0.00,40.00,69,-348,0,0.00
2013-4-2,77,58,45,58,-4,-100,80,50,32,0.00,40.00,69,-862,2,0.00
2013-4-3,111,39,45,58,-21,-100,80,48,39,0.00,40.00,41,-504,46,0.00
2013-4-4,91,53,53,70,-1,-100,88,56,44,0.00,40.00,0,-472,65,0.00
2013-4-5,79,46,56,57,-23,-100,80,44,44,0.00,40.00,101,-355,74,0.00
2013-4-6,76,44,50,52,-11,-100,81,50,26,0.00,40.00,32,-403,5,0.00
2013-4-7,79,40,49,52,-40,-100,80,38,51,0.00,40.00,101,-463,37,0.00
2013-4-8,65,43,50,53,-15,-100,80,46,49,0.00,40.00,0,-566,28,0.00
2013-4-9,61,34,42,40,-58,-100,72,23,34,0.00,40.00,28,-349,74,0.00
2013-4-10,74,30,41,51,-66,-100,80,33,43,0.00,40.00,65,-314,1,0.00
2013-4-11,84,43,46,64,-23,-100,80,47,33,0.00,40.00,83,-441,32,0.00
2013-4-12,81,43,47,56,-28,-100,80,43,65,0.00,40.00,65,-481,92,0.00
2013-4-13,129,46,48,52,-38,-100,81,41,35,0.00,40.00,28,-434,30,0.00
2013-4-14,90,37,47,52,-26,-100,80,46,29,0.00,40.00,1,-444,18,0.00
2013-4-15,84,41,46,55,-43,-100,95,29,31,0.00,40.00,74,-477,83,0.00
2013-4-16,64,34,41,36,-44,-100,95,30,33,0.00,40.00,1,-430,18,0.00
2013-4-17,57,39,40,40,-72,-100,80,13,46,0.00,40.00,1,-541,0,0.00
2013-4-18,74,13,42,42,-90,-100,80,22,53,0.00,40.00,23,-174,28,0.00
2013-4-19,68,36,40,53,-63,-100,80,24,36,0.00,40.00,106,-378,106,0.00
2013-4-20,84,34,46,52,-65,-100,80,34,38,0.00,40.00,28,-384,65,0.00
2013-4-21,78,35,47,53,-21,-100,80,60,32,0.00,40.00,65,-407,37,0.00
2013-4-22,88,40,50,56,-36,-100,80,40,42,0.00,40.00,37,-343,52,0.00
2013-4-23,75,30,49,51,-58,-100,80,37,35,0.00,40.00,46,-308,55,0.00
2013-4-24,73,37,50,49,-26,-100,88,43,36,0.00,40.00,65,-318,28,0.00
2013-4-25,77,29,54,56,-49,-100,80,37,33,0.00,40.00,74,-250,41,0.00
2013-4-26,87,45,50,58,-50,-100,82,35,71,0.00,40.00,14,-507,20,0.00
2013-4-27,89,38,50,59,-31,-100,80,43,52,0.00,40.00,9,-229,28,0.00
2013-4-28,68,45,55,58,-14,-100,80,56,65,0.00,40.00,9,-442,32,0.00
2013-4-29,65,32,56,58,-65,-100,80,25,69,0.00,40.00,37,-514,97,0.00
2013-4-30,75,29,61,55,-54,-100,80,33,29,0.00,40.00,28,-259,0,0.00
2013-5-1,64,21,49,47,-92,-100,78,12,46,0.00,40.00,69,-202,5,0.00
2013-5-2,78,34,50,48,-73,-100,80,23,35,0.00,40.00,106,-382,76,0.00
2013-5-3,68,30,52,50,-35,-100,80,50,43,0.00,40.00,37,-227,0,0.00
2013-5-4,75,34,52,52,-36,-100,80,44,32,0.00,40.00,3,-404,74,0.00
2013-5-5,61,36,52,47,-21,-100,80,47,39,0.00,40.00,28,-314,5,0.00
2013-5-6,62,16,62,-100,-100,-100,0,0,100,0.00,40.00,28,-229,0,0.00
2013-5-7,75,44,53,52,-6,-100,81,55,42,0.00,40.00,76,-223,28,0.00
2013-5-8,79,35,55,54,-37,-100,96,45,59,0.00,40.00,28,-368,43,0.00
2013-5-9,79,34,55,58,-58,-100,80,28,53,0.00,40.00,74,-314,65,0.00
2013-5-10,81,44,57,64,-42,-100,96,34,67,0.00,40.00,74,-492,0,0.00
2013-5-11,87,50,59,65,-36,-100,80,33,70,0.00,40.00,0,-624,14,0.00
2013-5-12,78,43,64,67,-35,-100,80,34,52,0.00,40.00,0,-599,0,0.00
2013-5-13,84,49,61,55,-78,-100,80,11,80,0.00,40.00,74,-550,74,0.00
2013-5-14,81,58,60,58,5,-100,68,46,36,0.00,40.00,0,-699,0,0.00
2013-5-15,73,62,59,53,-19,-100,78,39,49,0.00,40.00,0,-768,0,0.00
2013-5-16,68,58,54,51,-19,-100,80,43,74,0.00,40.00,0,-999,0,0.00
2013-5-17,62,58,56,48,23,-100,71,56,61,0.00,40.00,0,-999,0,0.00
2013-5-18,62,35,48,46,-17,-100,80,53,52,0.00,40.00,106,-633,28,0.00
2013-5-19,63,41,50,51,-60,-100,80,33,61,0.00,40.00,28,-596,74,0.00
2013-5-20,83,44,53,76,-10,-100,82,46,50,0.00,40.00,65,-574,60,0.00
2013-5-21,79,40,55,57,-36,-100,80,38,32,0.00,40.00,14,-576,74,0.00
2013-5-22,67,46,48,52,-38,-100,80,39,32,0.00,40.00,14,-742,37,0.00
2013-5-23,67,31,40,45,-40,-100,80,29,31,0.00,40.00,75,-592,71,0.00
2013-5-24,73,42,49,51,-50,-100,80,26,30,0.00,40.00,90,-452,31,0.00
2013-5-25,72,34,47,46,-50,-100,76,31,35,0.00,40.00,74,-198,30,0.00
2013-5-26,75,26,48,48,-64,-100,81,27,7,0.00,40.00,112,-175,35,0.00
2013-5-27,67,16,60,48,-81,-100,64,13,46,0.00,40.00,37,-119,12,0.00
2013-5-28,68,24,54,55,-77,-100,96,32,69,0.00,40.00,65,-83,98,0.00
2013-5-29,88,37,54,61,-59,-100,80,39,41,0.00,40.00,28,-318,68,0.00
2013-5-30,72,29,61,53,-44,-100,80,41,31,0.00,40.00,1,-281,5,0.00
2013-5-31,82,34,53,51,-66,-100,80,14,27,0.00,40.00,28,-282,3,0.00
2013-6-1,77,14,59,54,-89,-100,58,16,41,0.00,40.00,32,-65,0,0.00
2013-6-2,86,19,60,56,-84,-100,88,40,35,0.00,40.00,103,-139,74,0.00
2013-6-3,84,37,60,57,-40,-100,80,42,36,0.00,40.00,106,-144,97,0.00
2013-6-4,89,38,62,57,-54,-100,80,38,30,0.00,40.00,74,-329,74,0.00
2013-6-5,75,19,61,60,-72,-100,80,23,56,0.00,40.00,65,-44,65,0.00
2013-6-6,-200,0,200,-100,-100,-100,66,6,66,0.00,40.00,9,2,9,0.00
2013-6-7,-200,0,200,-100,-100,-100,0,0,100,0.00,40.00,76,26,0,0.00
2013-6-8,84,30,68,64,-76,-100,80,17,38,0.00,40.00,107,-142,5,0.00
2013-6-9,99,54,65,57,8,-100,65,48,38,0.00,40.00,36,-588,5,0.00
2013-6-10,88,24,59,51,-71,-100,74,17,66,0.00,40.00,36,-322,3,0.00
2013-6-12,-200,0,200,-100,-100,-100,0,0,100,0.00,40.00,105,105,0,0.00
2013-6-13,78,47,78,36,-18,-100,22,13,22,0.00,40.00,0,0,41,0.00